Theta_e
278 278 277 277 277 277 277 276 276 276 275 275 274 274 274 274 274 274 274 275 275 276 277 278 279 280 281 282 283 285 286 289 292 294 294 293 293 293 294 294 296 298 300 301 303 311 315 314 314 314 313 312 311 310 310 310 311 311 311 311 311 312 312 312 311 307 305 306 308 308 311 313 313 314 316 316 316 318 318 317 317 315 315 315 314
278 277 277 277 277 276 276 276 276 275 275 275 274 274 274 274 274 274 274 274 275 276 277 277 278 279 280 281 282 283 285 288 291 293 294 293 293 293 293 294 295 297 300 300 302 310 315 313 313 314 313 312 311 310 309 309 310 311 310 311 311 311 312 312 309 305 303 303 304 304 307 310 310 311 314 315 314 316 317 316 316 316 315 314 313
277 276 276 276 276 276 276 275 275 275 275 274 274 274 274 274 274 274 274 274 274 275 276 277 277 278 279 280 281 282 284 287 290 292 293 293 293 293 293 294 295 297 299 300 301 308 314 313 312 313 312 312 311 310 309 309 310 310 310 311 311 310 312 311 308 305 302 300 300 301 303 307 309 308 311 313 314 314 314 314 315 314 314 313 313
276 276 275 275 275 275 275 275 275 275 274 274 274 274 274 273 273 273 273 274 274 274 275 275 276 277 278 279 280 281 282 285 288 291 292 292 292 292 292 293 294 295 298 299 300 306 313 313 312 312 312 312 311 310 309 309 309 310 310 310 310 310 310 311 309 306 303 299 299 300 301 304 306 307 308 309 310 312 312 312 312 312 311 311 311
275 275 274 274 275 274 274 274 274 274 274 273 273 273 273 273 273 273 273 273 273 274 274 274 275 275 277 278 279 280 281 282 285 289 291 292 292 292 292 292 293 294 296 298 299 303 311 312 311 312 312 311 311 309 309 309 309 309 310 309 309 309 309 310 308 307 304 300 298 298 300 301 302 304 305 305 304 305 307 307 307 307 306 305 304
274 274 273 273 274 274 274 274 273 273 273 273 273 273 273 273 273 273 273 273 273 273 273 274 274 275 276 277 278 279 280 281 282 286 289 291 292 292 292 292 292 293 295 298 298 301 308 312 310 310 311 311 310 309 309 309 309 309 309 309 308 308 308 308 307 306 304 302 299 297 298 299 300 299 301 304 303 301 301 301 300 299 299 298 298
273 273 273 273 273 273 273 273 273 273 273 272 272 272 272 272 272 272 272 273 273 273 273 274 274 274 275 276 277 278 279 280 281 283 287 290 291 291 291 291 292 293 294 297 298 299 305 311 310 309 311 311 310 310 309 309 309 309 309 309 308 307 307 306 305 304 303 301 299 298 298 298 299 298 298 302 303 302 300 299 298 298 297 296 295
272 272 272 272 272 272 272 272 272 272 272 272 272 272 272 272 272 272 272 272 272 272 273 273 273 273 274 275 275 276 278 279 279 282 285 289 291 291 291 291 291 292 293 295 298 299 302 308 310 309 310 311 310 310 309 309 309 309 309 308 307 306 306 304 303 303 301 299 298 298 298 298 298 297 297 298 300 300 300 300 299 299 299 298 297
271 271 271 271 272 272 272 272 272 272 272 272 271 271 271 271 271 271 271 271 271 271 272 272 272 273 273 274 275 276 277 278 279 281 283 286 289 291 291 291 291 292 292 293 296 297 300 307 310 309 310 311 310 310 310 310 310 309 308 308 307 306 304 303 303 301 300 299 298 297 297 297 297 296 296 297 298 298 299 299 299 299 300 300 301
270 270 270 271 271 271 271 271 271 271 271 271 271 270 270 270 270 270 270 270 271 271 271 272 272 273 273 274 275 276 277 278 279 280 282 284 287 289 290 291 291 291 292 292 294 295 298 305 310 309 309 310 310 310 310 310 310 309 309 308 306 305 304 303 302 301 300 299 298 297 297 297 297 297 296 297 298 298 299 299 298 299 300 300 301
269 269 270 270 271 271 271 271 271 270 270 270 270 269 269 269 269 269 269 270 270 270 271 271 272 273 273 274 275 276 278 279 279 281 282 283 285 287 289 291 291 291 291 292 293 294 297 304 310 310 309 309 309 309 310 310 310 310 309 308 308 306 305 303 302 301 301 300 298 298 298 297 297 297 297 297 298 299 299 299 298 298 299 298 299
269 269 270 270 270 270 270 270 270 270 269 269 268 268 268 268 268 269 269 269 270 270 271 271 271 272 272 272 273 275 277 278 279 280 281 283 284 286 288 290 291 291 291 291 292 294 295 301 309 310 308 308 308 308 309 309 309 309 309 309 308 308 307 306 304 302 302 300 298 298 299 298 297 297 297 297 298 299 299 299 299 299 299 299 299
268 269 269 270 270 270 270 269 269 268 268 267 267 267 267 268 268 268 269 269 269 270 270 270 271 271 271 272 272 274 276 278 279 280 281 282 284 285 287 290 291 291 291 291 292 293 294 299 307 309 307 307 308 307 307 308 308 308 308 308 307 307 307 308 307 305 304 301 299 299 299 299 297 297 299 299 299 299 298 298 298 298 298 299 299
268 269 269 269 269 269 269 268 267 267 267 266 266 267 267 267 268 268 268 269 269 269 270 270 270 271 271 272 272 274 276 278 279 280 281 282 283 285 287 289 291 291 291 291 291 293 293 296 304 309 307 306 307 306 307 306 306 306 306 306 306 306 306 307 306 306 305 303 301 300 300 301 301 300 300 301 300 300 299 297 297 298 299 299 300
268 268 269 268 268 268 267 267 266 266 266 266 266 266 267 267 267 267 268 269 269 269 270 270 270 271 271 272 273 274 276 279 280 280 281 282 283 284 286 289 290 290 291 291 291 292 293 294 300 307 308 306 306 306 306 305 304 304 304 304 304 304 305 305 306 306 305 305 304 302 301 302 304 304 302 302 303 304 303 301 299 299 299 299 298
268 268 268 267 267 266 266 265 265 265 265 265 265 265 266 266 267 267 268 268 269 269 270 270 271 271 271 272 272 273 275 278 280 281 282 282 283 284 286 288 290 291 291 291 291 292 293 294 298 306 308 306 306 306 306 305 304 303 303 303 303 303 304 305 306 306 307 306 306 306 305 305 306 307 307 305 304 302 301 299 298 297 297 296 295
267 267 266 266 265 265 264 264 264 264 264 264 265 265 266 266 266 267 268 268 269 269 270 270 271 271 272 272 272 274 276 279 280 281 281 282 283 284 286 288 290 291 291 291 291 292 293 294 297 304 308 306 305 306 305 305 303 302 302 302 301 302 303 303 304 305 306 306 306 307 308 308 307 308 308 306 302 300 298 296 295 296 296 294 292
266 265 265 264 264 263 263 263 263 263 264 264 265 265 266 266 267 267 268 268 269 269 270 270 271 271 272 272 273 274 275 277 279 280 281 281 283 284 286 288 290 290 291 291 291 292 293 294 296 303 307 307 305 305 305 304 303 302 301 301 300 301 301 302 302 303 303 304 305 305 307 307 308 307 305 303 301 300 299 297 296 295 295 294 292
265 264 263 263 263 262 262 262 262 263 263 264 264 265 266 267 267 267 268 268 269 270 270 271 271 272 272 273 274 275 276 277 279 280 281 282 284 285 287 288 289 290 290 291 291 292 293 294 296 301 307 307 306 305 305 304 302 302 301 301 300 300 301 301 301 301 301 301 301 302 302 303 303 303 301 301 300 300 301 300 297 296 296 295 293
263 262 262 262 261 261 262 262 262 263 264 264 265 266 266 267 267 268 269 269 270 270 271 271 272 272 272 273 274 276 278 279 280 281 282 283 284 286 287 288 289 290 291 291 292 292 293 295 298 302 306 308 306 305 305 304 303 302 301 301 300 300 301 301 301 301 300 299 299 299 299 299 299 298 298 298 298 298 299 300 298 297 296 295 293
262 261 261 261 261 261 262 262 263 264 265 265 266 267 267 268 269 269 270 271 271 272 272 272 272 273 273 274 275 276 278 280 281 282 283 284 285 287 288 289 290 290 291 291 292 293 294 297 300 303 306 307 306 306 305 304 303 302 302 302 302 301 301 300 300 300 299 299 298 298 297 297 297 296 296 296 296 296 297 297 298 298 297 296 294
261 260 260 260 261 262 262 263 264 265 266 266 267 268 268 269 269 270 271 272 273 273 273 273 273 274 274 275 277 278 279 280 282 282 284 285 286 288 289 290 290 291 291 292 293 293 295 297 301 304 306 307 307 306 306 305 304 303 303 303 302 302 301 300 299 299 298 298 297 296 296 295 295 295 295 295 295 296 296 296 297 297 297 298 297
260 260 260 261 261 262 263 264 265 266 266 267 267 268 268 269 269 270 271 273 274 275 276 275 275 275 276 276 278 279 281 282 283 284 284 285 287 289 290 290 290 291 291 292 293 294 295 298 301 304 306 306 307 306 306 305 304 304 304 303 302 302 301 299 298 298 297 297 296 295 295 294 294 294 294 294 295 295 295 296 296 296 297 297 298
259 259 260 261 262 263 264 264 265 266 266 267 267 267 268 268 269 270 271 272 274 276 278 278 277 277 278 279 281 283 285 286 286 287 287 287 288 289 291 291 291 292 292 292 293 294 296 298 302 304 306 306 306 306 306 305 305 304 304 303 303 301 299 298 297 297 297 296 296 295 294 294 294 294 294 294 294 294 295 295 295 296 296 296 296
259 260 261 262 262 263 264 265 265 266 266 266 266 267 267 268 269 269 271 272 274 276 278 279 280 281 282 284 285 287 288 288 289 289 290 290 290 290 291 292 292 293 293 293 294 294 296 299 302 305 306 306 306 306 305 305 305 305 304 303 302 300 298 297 297 297 297 296 296 296 295 294 294 294 294 294 294 294 294 294 294 294 295 295 295
259 260 261 262 263 264 265 265 265 265 265 265 266 266 267 267 268 269 271 272 273 274 276 277 279 281 283 286 288 289 289 290 290 290 291 291 292 292 292 292 293 293 294 294 294 295 296 299 303 305 306 305 305 304 305 305 305 304 304 303 301 299 298 298 297 297 297 297 297 296 296 295 294 294 294 294 294 293 293 293 293 293 293 294 293
259 260 261 262 263 264 265 265 265 265 265 265 265 265 266 266 267 269 270 271 272 273 274 276 278 280 282 285 288 289 290 290 291 291 292 292 293 293 293 293 293 294 294 294 294 295 297 300 303 305 305 304 304 304 304 304 304 303 302 301 300 299 299 299 298 298 298 297 297 297 296 295 294 294 293 293 293 293 293 293 293 293 293 293 293
259 261 262 263 263 264 264 264 264 264 264 264 264 264 265 265 266 268 269 270 272 273 274 275 276 278 279 282 287 290 291 291 292 292 292 293 293 294 294 294 294 294 295 295 295 296 298 301 303 304 303 303 303 303 303 302 302 301 301 300 300 299 299 299 299 299 299 298 298 297 296 295 294 294 293 293 293 293 293 293 293 293 292 292 292
260 261 262 263 263 264 264 264 264 264 264 264 264 264 264 265 266 267 268 269 271 272 273 274 275 276 277 280 284 287 289 291 291 292 293 293 294 294 295 295 295 295 295 296 296 297 299 301 301 302 301 301 301 301 302 301 301 300 300 300 300 299 299 299 298 298 299 299 298 297 296 295 294 294 293 293 293 293 293 293 293 293 292 292 292
260 261 262 262 263 263 263 263 263 263 263 263 263 263 263 264 265 266 267 268 270 271 272 273 274 274 275 277 279 282 284 286 288 290 292 292 293 294 295 296 297 297 297 297 298 298 299 300 300 300 301 301 301 301 301 300 300 299 299 299 299 299 298 298 299 299 299 299 298 297 296 295 294 294 293 293 293 293 292 293 293 293 292 292 292
259 260 261 262 263 263 263 263 263 263 263 263 262 263 263 263 263 265 266 267 268 269 270 271 273 273 273 275 277 278 280 282 284 287 290 292 293 294 295 296 297 297 298 298 298 299 300 300 300 300 300 300 301 300 300 300 299 299 298 299 299 299 298 298 299 299 299 299 298 297 297 296 295 294 294 294 293 293 292 292 293 293 292 292 292
259 260 261 262 262 262 262 262 262 262 262 262 262 262 262 262 262 263 264 264 266 267 268 269 271 271 271 272 275 276 278 279 281 283 287 290 293 295 296 297 297 298 299 299 299 299 300 300 299 300 300 300 300 300 300 299 299 298 298 298 298 298 298 298 299 299 299 299 298 298 297 296 296 295 294 294 294 293 292 292 292 293 292 292 292
259 259 261 261 262 261 261 261 261 261 261 261 261 261 261 261 261 261 262 262 263 265 265 266 269 270 269 270 272 274 275 276 277 279 283 288 292 295 296 297 297 298 299 299 299 299 300 300 300 300 300 300 300 300 299 299 299 298 298 298 298 298 298 298 299 299 298 298 298 298 297 297 296 295 295 295 294 294 293 292 293 293 293 292 292
258 259 260 261 261 261 261 260 261 261 261 260 260 260 261 261 261 261 261 261 262 262 263 263 266 268 267 267 269 271 272 274 274 275 278 282 287 294 297 297 299 300 300 300 300 300 299 300 300 300 300 300 300 299 299 299 298 299 298 299 299 298 298 298 298 298 298 298 298 297 297 296 296 296 295 295 294 294 293 293 293 293 293 293 293
258 259 260 260 260 260 260 260 260 260 260 260 260 260 260 260 260 260 260 260 260 261 260 261 263 266 266 265 266 267 269 271 271 272 272 274 279 285 287 287 288 290 290 292 296 299 299 300 300 299 299 300 299 299 299 298 298 298 298 299 299 298 298 297 297 297 297 297 297 297 296 296 296 295 295 294 294 294 293 293 293 293 293 293 293
258 258 259 260 260 259 259 259 260 260 259 259 259 259 259 259 259 259 259 259 260 260 260 260 262 264 265 264 263 264 266 267 268 268 268 268 270 273 273 272 274 276 276 278 282 288 291 295 298 299 299 299 299 299 298 298 298 298 298 298 298 298 297 297 297 297 297 297 297 297 296 296 295 295 295 294 294 294 294 293 293 293 293 293 293
257 258 259 259 259 259 258 259 259 259 259 258 258 258 259 259 259 259 259 259 259 259 259 259 260 262 263 263 261 261 262 264 265 265 265 265 265 265 266 267 269 270 271 272 273 276 278 282 288 293 297 298 299 299 298 298 298 298 298 298 298 297 297 297 297 297 297 297 297 296 296 296 295 295 295 294 294 294 294 294 293 293 293 293 293
257 257 258 259 259 258 258 258 259 259 259 258 258 258 258 258 258 258 258 258 258 258 258 258 259 261 262 262 260 259 260 261 261 261 261 261 262 262 263 264 266 267 269 270 270 271 272 273 277 282 287 292 295 297 297 298 298 298 297 297 297 297 297 297 297 297 296 296 296 296 296 296 295 295 295 294 294 294 294 294 294 293 293 293 293
257 257 258 259 259 258 258 258 258 258 258 258 258 257 257 257 258 258 257 258 258 258 258 258 258 260 262 262 260 258 258 258 259 259 259 259 260 260 261 262 264 266 267 268 269 270 270 270 271 274 278 282 286 290 293 296 297 297 297 297 297 297 296 296 296 296 296 296 296 296 296 296 296 295 295 295 294 294 294 294 294 293 293 293 293
257 257 257 258 258 257 257 257 257 258 258 258 257 257 257 257 257 257 257 257 257 257 257 257 257 258 261 263 261 258 257 257 257 258 258 259 259 260 260 261 262 263 264 265 267 269 269 269 270 271 272 275 278 281 286 290 294 296 297 297 297 296 296 296 296 296 296 296 296 296 296 296 296 295 295 294 295 295 294 294 294 294 293 293 293
256 256 257 257 257 257 257 257 257 257 257 257 257 257 257 256 256 256 256 256 256 256 256 256 257 257 260 262 261 259 257 256 257 257 258 258 258 259 260 260 261 262 262 263 265 267 268 269 269 269 270 271 273 275 278 282 286 290 293 295 296 296 296 296 296 296 296 296 296 296 296 296 296 295 295 295 295 294 294 294 294 293 293 293 293
256 256 256 256 256 256 256 256 256 256 257 257 257 257 256 256 256 256 256 256 256 256 256 256 256 256 258 260 260 258 257 256 256 257 258 258 257 258 259 260 261 261 261 262 263 265 267 268 268 269 269 269 270 271 273 275 278 281 284 288 291 292 293 294 295 296 296 296 296 296 296 296 296 296 295 295 295 294 294 294 294 294 293 293 293
256 256 256 256 256 256 256 256 256 256 256 256 256 256 256 256 256 256 255 255 255 255 255 255 255 255 256 257 258 257 256 255 255 256 257 256 256 257 258 259 260 261 261 262 262 264 265 266 267 268 268 269 269 269 270 271 272 275 277 280 283 285 286 289 291 292 294 295 296 296 296 296 296 296 296 295 295 295 294 294 294 294 293 293 293
257 256 256 256 256 256 255 255 255 255 256 256 255 255 255 255 256 255 255 255 255 254 254 254 255 255 255 256 255 255 255 255 255 255 255 255 256 256 258 258 259 260 260 261 262 263 264 265 266 267 268 268 269 269 269 270 270 272 273 275 277 279 281 284 286 288 291 293 294 295 295 295 296 295 295 295 295 295 295 294 294 294 293 293 293
257 257 256 256 256 256 255 255 255 255 255 255 255 255 255 255 255 255 255 254 254 254 254 254 254 254 255 255 255 255 255 254 254 255 255 255 255 256 257 258 259 259 260 260 261 262 263 264 265 266 267 267 268 268 269 269 270 270 271 273 274 276 277 280 283 286 289 291 292 293 294 294 294 295 295 295 295 295 294 294 294 293 293 293 292
258 257 257 256 256 255 255 255 255 255 255 255 255 255 255 254 255 254 254 254 254 254 254 254 254 254 254 254 254 254 254 254 254 255 255 255 256 256 257 258 258 259 260 260 261 261 262 263 264 265 266 266 267 268 268 269 269 270 271 272 273 275 276 279 282 285 288 289 291 291 292 292 292 293 293 293 293 293 293 293 293 293 292 292 292
259 258 257 257 256 256 255 255 255 254 254 254 254 254 254 254 254 254 254 254 254 254 253 253 254 254 254 254 254 254 254 254 254 255 255 256 256 257 258 259 259 259 260 260 261 262 262 262 263 264 265 266 266 267 268 268 268 269 270 271 272 274 276 278 281 283 285 287 288 289 290 290 289 290 290 291 291 291 291 291 291 291 291 291 291
259 258 258 257 257 256 255 255 254 254 254 253 254 254 254 254 254 254 254 253 253 253 253 253 253 254 254 254 254 254 254 254 255 256 256 256 257 257 258 259 260 260 261 261 261 262 262 262 263 263 264 265 266 266 267 268 268 268 269 270 271 273 275 277 279 280 282 283 285 286 286 286 286 286 287 287 288 288 288 288 288 288 289 289 289
259 259 258 258 257 256 255 255 254 254 253 253 253 253 253 254 254 253 253 253 253 253 253 253 253 253 254 254 254 254 254 255 256 256 256 257 257 258 259 259 260 260 261 262 262 262 263 263 263 263 264 264 265 266 266 267 268 268 268 269 271 273 275 276 277 278 279 281 281 282 282 283 283 283 283 284 284 284 284 284 285 285 285 286 286
259 258 258 257 257 256 256 255 255 254 253 253 253 253 253 253 253 253 253 253 253 253 253 253 253 253 253 254 254 254 255 255 256 256 256 257 258 258 259 259 260 260 261 261 262 263 263 263 263 263 263 264 264 265 266 266 267 267 267 268 270 272 274 274 275 276 277 278 278 278 279 279 279 279 279 280 281 281 281 281 282 282 282 282 283
259 258 258 258 257 257 256 256 255 255 254 254 253 253 253 253 253 253 253 253 253 253 253 253 253 253 254 254 254 254 255 255 256 256 257 257 258 258 259 259 260 260 261 261 262 262 263 263 263 263 263 264 264 264 265 265 266 267 268 268 269 270 272 273 273 273 274 275 275 276 276 276 275 275 275 276 276 277 277 278 278 279 279 279 279
Wind_Speed
38 38 39 39 39 39 41 43 43 42 40 38 39 40 39 39 38 39 39 39 39 38 38 39 38 37 35 33 33 33 33 33 33 32 28 24 23 22 21 23 26 29 28 28 33 32 42 45 45 47 45 42 41 42 44 45 45 43 42 41 38 39 40 29 15 11 15 24 32 38 46 50 48 48 50 49 49 49 47 45 45 43 42 42 40
39 39 39 39 39 40 41 43 43 43 41 38 37 37 37 38 38 38 39 39 38 38 37 39 38 37 35 34 34 34 33 32 32 31 29 25 23 21 20 21 24 27 26 26 32 31 39 42 42 46 46 44 43 42 44 44 44 43 41 41 39 39 42 36 23 14 13 19 30 36 42 48 46 46 50 50 49 49 48 45 43 42 42 41 40
38 38 39 39 39 40 40 43 44 43 39 36 35 36 36 38 39 37 37 38 38 37 37 37 38 37 36 34 34 34 33 32 31 30 28 26 23 21 20 20 22 25 25 25 31 30 34 40 40 44 45 44 43 43 45 45 45 44 43 41 41 40 41 40 33 23 17 19 29 35 39 44 44 44 48 49 49 48 46 44 42 40 39 38 38
38 38 39 39 40 39 40 43 44 41 37 34 34 36 37 38 38 37 36 36 37 37 37 37 37 38 37 34 33 34 34 32 32 31 28 25 24 22 21 21 21 23 25 24 29 31 31 39 41 45 46 43 43 43 44 46 45 46 44 42 43 43 41 41 40 35 27 22 26 35 40 41 41 43 45 44 44 45 43 41 40 39 38 37 36
38 38 38 40 41 40 40 42 42 39 37 34 34 35 36 36 36 36 36 36 38 39 39 39 38 36 36 35 34 34 34 33 32 31 29 26 25 23 21 22 22 22 26 26 28 31 30 39 42 46 47 44 43 44 45 47 45 45 45 42 42 44 43 40 40 40 37 29 26 31 35 35 36 40 44 42 39 38 38 39 39 38 37 36 35
38 38 38 40 40 40 41 41 40 38 37 35 35 35 35 34 35 36 36 36 38 39 38 37 35 34 35 35 34 34 34 33 33 32 31 29 26 24 22 22 22 22 25 26 27 31 29 37 44 46 47 45 44 45 46 48 45 44 45 43 42 44 42 39 39 40 38 35 33 31 30 32 34 36 40 43 42 38 34 33 34 35 35 35 33
38 38 38 39 39 40 40 40 40 39 37 35 35 34 32 33 33 34 34 34 34 34 33 34 35 36 37 37 36 36 34 33 33 32 32 31 27 25 23 22 22 22 24 25 25 29 30 32 42 45 46 46 47 48 47 47 45 44 45 44 42 43 40 38 39 38 35 33 34 35 34 33 34 35 37 41 41 40 38 33 29 29 32 34 33
38 39 38 38 39 40 40 41 41 40 38 36 35 33 32 33 33 33 34 34 34 34 35 37 39 39 39 38 38 37 35 34 34 32 31 30 28 26 24 22 22 22 24 26 24 26 30 31 39 46 48 49 49 51 50 47 44 42 43 44 44 43 40 38 38 36 34 31 29 32 34 32 31 32 34 36 34 33 37 37 33 32 32 33 34
38 39 38 37 38 39 40 41 42 42 40 37 35 35 34 34 33 34 36 37 37 40 41 40 40 40 39 39 38 37 36 35 34 32 30 30 28 26 24 22 22 23 25 26 25 25 30 32 40 47 51 52 52 54 55 52 47 44 42 44 46 44 41 39 37 35 32 29 27 28 29 29 31 33 33 35 35 32 33 33 32 33 34 32 33
39 38 38 39 39 39 41 42 42 41 40 38 37 37 36 36 35 36 38 40 41 42 41 38 37 37 36 36 36 35 35 34 32 30 30 31 30 28 26 24 23 23 24 26 25 26 31 33 44 50 50 53 54 55 57 55 53 51 48 48 48 46 42 39 37 37 33 27 28 28 23 22 31 37 36 36 36 35 35 33 30 31 30 25 23
38 37 38 40 41 40 42 42 41 39 39 39 39 39 37 37 38 37 38 40 40 39 37 35 34 33 32 33 33 32 32 31 29 29 30 31 31 30 29 26 25 24 24 24 24 25 31 31 43 52 50 51 53 55 57 56 55 55 54 54 55 53 50 44 38 38 36 29 30 32 26 23 31 38 37 36 37 39 40 37 34 33 29 22 16
37 38 39 41 41 40 40 40 41 40 41 41 41 39 38 39 38 36 36 36 35 34 33 33 32 31 32 33 33 33 33 32 31 31 31 31 31 31 30 28 26 26 25 24 24 24 29 30 35 50 50 50 51 52 55 56 56 57 57 58 59 60 60 57 49 45 42 35 32 33 32 31 33 36 39 40 40 40 38 37 38 38 34 28 23
37 38 39 40 41 39 38 38 41 41 42 43 42 40 39 36 33 32 33 33 33 32 32 34 33 32 33 33 33 33 33 33 32 31 30 30 31 31 31 30 27 27 26 24 25 24 26 30 27 41 48 50 51 50 51 53 53 55 56 57 57 58 60 62 60 56 52 45 38 36 38 40 38 39 44 46 42 39 37 36 38 38 36 35 34
37 38 40 40 39 38 37 38 40 41 42 43 42 39 37 33 31 31 32 31 31 31 32 33 33 32 31 32 32 32 32 31 30 30 30 30 31 30 31 30 28 27 28 26 27 27 26 29 25 34 45 47 49 50 49 49 48 48 51 52 53 55 56 57 58 57 54 52 47 43 44 47 48 46 48 50 48 46 43 39 39 39 38 39 39
37 38 39 39 38 37 38 38 38 39 41 42 38 36 34 32 32 32 32 31 30 29 29 30 30 30 30 31 31 32 32 32 31 31 31 31 31 30 30 30 29 28 28 27 27 29 27 29 28 31 44 46 48 51 49 48 46 44 46 47 48 51 53 55 57 57 55 55 54 51 48 50 51 50 51 53 53 52 51 49 47 44 39 35 33
37 37 37 38 38 37 37 38 37 37 39 39 37 36 36 34 34 33 32 31 31 28 27 28 30 31 32 32 32 32 33 33 32 32 31 30 29 29 29 29 28 27 28 28 28 30 29 28 30 29 42 48 50 53 52 49 47 44 43 43 44 46 49 53 57 59 58 55 54 53 51 50 50 50 53 55 54 50 46 43 41 39 34 26 23
35 36 36 36 37 37 37 37 37 38 38 38 38 38 36 33 32 31 30 30 31 29 28 28 28 30 31 31 31 31 32 31 30 30 31 30 29 29 28 28 27 26 27 29 28 29 30 29 31 29 38 48 51 54 53 51 48 46 43 40 39 40 43 46 51 54 55 54 53 53 52 51 50 51 54 57 54 50 44 37 36 37 31 20 15
35 35 35 36 37 39 38 37 39 39 39 40 39 38 38 38 36 34 31 29 30 30 28 27 27 28 30 30 31 32 33 32 30 31 33 32 31 30 28 26 26 26 27 28 29 30 31 31 32 30 36 47 52 54 55 53 49 47 44 40 37 36 38 42 44 45 45 46 48 50 52 54 55 54 56 57 56 55 52 45 43 42 34 23 19
35 35 36 37 38 38 38 39 40 39 40 42 43 44 49 50 45 39 34 30 30 31 28 26 26 27 28 29 30 31 32 33 32 32 33 32 31 30 29 26 25 26 25 26 27 29 31 31 32 33 37 49 53 54 56 55 51 49 47 42 36 36 42 46 45 42 40 39 42 45 48 51 53 53 55 58 58 60 59 56 53 49 38 31 28
34 35 36 37 38 39 40 41 43 43 44 47 49 50 51 48 43 42 39 34 33 32 28 25 26 27 28 28 28 30 30 30 31 33 33 32 32 32 30 27 26 25 24 24 25 26 29 30 30 33 38 50 55 56 57 57 54 52 50 45 40 41 46 49 48 47 44 40 39 40 41 43 44 45 50 54 56 57 56 55 58 56 45 37 35
33 35 36 37 39 41 42 42 43 44 45 46 49 49 47 43 41 41 40 37 34 34 31 25 25 28 29 27 28 31 31 31 31 32 33 33 32 33 32 30 28 25 23 23 24 24 26 27 28 31 38 50 58 58 59 59 57 53 52 52 50 48 49 49 48 48 46 41 39 38 39 41 41 43 48 51 53 54 52 50 54 56 51 46 41
34 36 38 39 41 43 43 42 42 41 40 42 44 42 40 39 37 34 32 31 31 33 33 26 23 25 28 27 27 31 32 32 32 34 34 34 33 34 34 32 29 27 24 23 25 25 26 26 26 30 37 50 59 61 62 61 57 54 57 56 49 47 49 50 47 45 43 41 39 38 39 41 42 44 48 51 54 56 53 50 51 53 53 54 52
36 38 39 40 41 42 42 42 41 38 38 39 38 36 35 34 32 29 28 27 26 28 29 24 20 20 23 25 26 28 30 31 32 34 36 36 34 34 35 34 32 30 28 26 26 26 27 26 26 29 38 49 58 61 62 61 58 57 57 52 46 48 50 47 45 44 41 39 38 37 38 41 42 43 46 48 51 54 53 50 51 53 52 53 55
37 37 38 39 40 42 42 41 38 36 37 38 35 34 34 32 29 28 27 25 23 22 23 19 14 14 17 20 22 24 25 26 28 30 31 33 34 34 35 36 36 35 33 31 30 28 27 27 28 31 38 47 55 59 60 61 60 58 54 49 48 49 47 43 44 44 40 37 37 36 38 41 43 44 46 49 50 51 50 47 49 53 52 50 50
36 36 38 38 39 41 41 39 37 35 36 36 34 33 32 29 28 28 26 24 22 21 20 18 14 12 13 15 18 21 22 22 24 25 27 29 32 35 36 37 38 39 37 34 33 31 29 29 30 33 39 46 52 55 56 59 60 56 51 48 47 46 45 43 43 41 38 38 38 37 38 42 44 45 48 49 48 47 47 45 44 48 48 44 42
35 36 37 37 38 38 38 38 38 36 36 35 32 30 30 29 28 27 24 23 22 22 22 22 20 18 16 16 18 20 20 20 21 23 25 26 29 33 37 39 40 41 40 38 36 33 32 31 32 35 40 45 48 49 50 55 57 53 49 48 46 44 44 43 42 40 39 40 40 39 39 40 41 41 43 45 46 47 49 46 42 43 44 40 36
34 35 35 36 36 35 35 36 37 36 36 36 32 30 30 30 27 25 25 24 23 23 23 22 21 17 16 18 19 18 18 18 19 21 22 24 26 29 33 36 39 39 38 38 37 34 32 33 35 38 41 44 46 48 48 50 49 45 44 46 45 45 46 47 48 47 43 41 40 37 36 36 37 39 42 45 47 48 49 49 44 42 44 41 35
31 32 34 34 34 33 32 34 35 35 35 34 31 29 30 31 29 26 25 25 24 23 23 22 22 21 20 22 19 14 13 15 18 20 22 22 23 25 27 30 32 34 34 35 35 34 34 34 35 36 38 38 39 40 40 40 39 38 39 41 43 44 46 48 48 45 41 39 36 32 33 37 39 41 44 45 45 46 48 48 45 42 42 39 33
30 30 32 33 33 32 31 32 34 34 34 34 32 29 28 29 28 28 29 29 27 27 25 23 24 26 26 24 19 10 8 13 17 21 23 23 23 23 24 27 29 31 34 34 33 30 29 29 28 28 29 29 29 28 29 31 32 34 38 40 39 40 40 39 39 38 37 37 35 33 36 38 38 39 40 40 40 43 45 45 42 39 39 37 34
28 29 31 32 32 31 31 32 33 33 33 34 34 33 34 34 29 26 30 33 33 33 30 27 29 30 28 27 25 19 16 19 21 20 23 26 28 26 25 28 30 31 33 35 32 27 23 22 22 23 24 24 23 23 25 28 29 31 36 39 39 39 39 38 39 40 39 37 36 36 36 35 35 36 37 36 36 38 41 43 40 38 37 36 32
26 27 29 31 31 30 29 30 31 31 31 32 32 31 35 41 41 37 34 34 36 39 38 35 35 36 33 31 31 30 29 30 28 22 20 23 27 27 27 30 31 30 33 34 29 23 20 16 15 21 24 23 22 23 25 27 28 29 31 34 37 39 40 39 40 40 38 36 36 36 35 34 35 36 37 36 36 36 38 39 38 37 38 37 34
25 26 28 28 28 29 28 28 29 30 30 32 32 29 28 32 39 46 46 40 37 40 41 39 40 43 41 38 37 35 35 36 33 27 23 18 20 22 24 26 29 31 36 36 25 19 21 17 13 18 22 20 22 26 27 26 28 29 29 30 31 34 38 39 40 40 38 36 36 36 36 36 36 36 36 36 34 34 35 37 37 38 37 35 34
26 26 27 27 26 28 28 28 28 28 29 30 30 29 27 24 25 34 45 49 50 53 52 45 42 44 46 44 41 40 39 41 41 36 29 21 14 17 22 25 27 30 35 32 20 15 19 19 16 19 22 21 22 25 27 27 29 30 31 31 31 34 37 39 39 38 37 36 36 36 37 37 36 34 34 35 35 34 35 36 38 36 33 31 32
26 25 26 25 24 26 27 28 28 27 28 30 28 27 27 26 23 25 29 34 41 50 56 53 46 45 48 48 45 44 44 45 45 43 41 35 21 7 12 17 24 31 33 27 20 16 18 18 18 20 22 22 24 24 25 27 29 30 32 33 33 34 35 35 36 36 35 34 34 33 34 36 36 35 33 34 35 34 33 35 36 35 33 32 31
27 26 26 25 25 25 27 29 28 27 27 28 28 26 26 26 27 26 23 21 21 26 37 45 43 41 46 50 47 46 46 46 47 50 51 49 40 30 20 10 2 8 7 5 5 10 14 15 18 21 22 22 24 25 26 27 29 31 32 32 31 32 33 34 36 37 36 35 34 33 33 34 36 37 36 35 34 33 32 34 35 35 35 33 30
26 26 26 26 26 26 26 27 27 28 28 27 26 27 25 25 26 27 25 23 22 20 28 39 42 39 45 53 53 50 46 44 47 52 54 53 52 47 35 21 13 13 17 21 20 15 10 5 7 16 21 22 24 26 27 29 30 32 33 32 32 32 33 34 36 36 35 35 35 35 35 33 34 36 35 34 36 36 35 36 36 36 36 34 32
26 25 26 26 26 25 26 26 26 27 29 29 28 28 25 24 27 27 25 25 25 24 28 38 42 40 44 54 57 50 42 43 55 63 62 60 59 53 40 26 18 17 21 23 23 24 24 21 14 7 9 14 20 24 27 29 30 31 32 33 33 35 36 36 37 37 36 34 34 34 34 34 34 35 33 32 33 34 34 35 36 36 37 38 35
25 25 25 25 24 25 26 26 26 27 29 30 32 31 26 24 26 26 25 26 27 26 27 31 35 36 37 43 50 50 47 53 64 66 64 64 60 54 47 39 29 26 28 30 29 32 34 33 29 23 17 10 9 13 18 24 27 29 30 31 32 33 35 35 35 36 35 34 33 34 35 35 34 34 33 31 31 31 32 33 33 32 33 34 33
26 26 25 23 23 24 25 25 26 27 28 29 32 32 28 26 26 25 24 24 25 26 26 26 31 36 37 38 46 52 51 49 47 47 52 57 55 50 50 46 36 31 31 32 33 37 40 40 38 35 31 26 20 13 8 12 19 24 28 30 29 29 30 31 32 33 34 33 33 33 34 34 34 35 35 33 32 32 31 32 32 32 30 31 33
24 24 24 23 23 24 25 25 26 27 26 26 29 31 29 27 26 24 23 23 23 25 26 27 30 37 39 38 42 46 42 37 38 42 48 52 51 50 53 50 41 35 35 35 34 35 36 39 41 41 39 35 30 25 19 12 9 13 19 24 25 27 30 31 32 32 32 32 32 32 32 33 33 34 34 35 35 35 34 33 34 34 32 31 33
23 22 23 24 24 24 26 26 26 26 26 25 26 28 29 29 28 25 23 23 23 23 25 27 32 38 40 40 42 44 42 40 43 46 47 49 50 50 51 49 44 42 42 42 38 34 33 35 38 41 41 41 38 34 30 25 19 14 10 11 14 18 23 27 30 32 33 33 33 33 33 34 34 34 35 36 36 35 34 33 33 33 32 31 31
22 22 23 24 25 25 26 26 25 25 26 26 26 27 27 29 30 28 24 23 24 23 25 30 36 41 41 39 40 45 48 49 47 46 47 52 54 51 47 45 44 43 43 44 41 35 33 33 35 37 40 41 40 39 37 34 30 26 21 15 12 9 9 13 18 25 29 32 33 34 35 35 36 36 37 37 36 34 33 33 32 32 31 30 30
21 21 22 22 23 24 23 24 24 25 25 25 26 27 26 27 29 30 29 28 27 26 27 31 37 42 43 42 43 48 53 53 51 49 48 51 54 51 46 43 41 39 41 43 41 37 35 34 34 36 37 37 37 38 37 35 33 32 29 25 21 17 13 8 5 9 16 23 27 30 31 32 34 35 34 33 33 33 33 32 31 30 30 29 29
21 22 22 22 23 23 23 24 24 24 24 24 24 26 27 26 27 30 32 33 32 31 31 34 37 41 46 47 48 51 53 51 50 50 49 50 52 51 46 43 42 41 41 42 41 40 39 38 37 37 37 38 38 38 37 36 35 34 32 29 26 22 18 14 10 5 5 12 18 22 24 25 27 28 28 28 29 29 28 28 28 28 28 27 27
22 22 22 23 23 23 24 24 23 23 24 25 25 26 27 26 27 29 31 32 33 35 36 38 39 41 45 46 46 48 50 48 48 49 49 50 51 48 44 43 44 45 45 45 44 43 42 40 39 39 39 39 39 39 38 38 38 36 34 32 29 25 22 18 13 8 4 5 10 15 19 20 22 23 23 24 26 26 26 26 27 26 25 26 26
21 22 22 23 23 23 23 23 23 23 24 23 23 24 25 26 27 28 28 29 31 35 37 39 40 41 42 42 42 44 46 46 47 47 48 48 49 48 47 47 47 46 47 46 45 45 44 42 40 40 40 39 40 40 40 40 39 38 37 35 31 27 23 20 16 12 8 6 6 9 12 14 16 18 19 21 23 23 23 23 24 24 24 24 25
19 20 21 21 21 22 22 22 22 23 23 22 22 23 23 24 26 27 28 28 30 33 36 38 39 40 40 40 41 43 44 44 45 46 47 47 47 47 48 50 50 48 46 45 45 46 47 45 42 41 41 40 41 41 41 41 41 40 39 37 34 29 25 21 19 17 14 11 9 8 10 10 10 10 12 14 17 18 18 19 20 21 22 22 22
17 18 19 20 20 21 21 22 22 22 22 22 22 22 23 23 24 26 28 29 31 32 34 36 37 38 38 38 40 41 41 42 43 45 45 45 45 46 46 47 48 48 47 47 47 47 48 47 44 42 42 42 42 42 42 42 42 42 40 38 35 31 26 24 23 21 18 16 15 13 12 13 12 11 10 10 11 12 13 14 14 16 18 19 20
15 16 17 18 19 19 19 20 20 20 20 21 22 22 22 23 23 24 26 28 30 32 32 33 34 36 36 37 38 39 39 40 42 43 43 43 43 44 44 44 45 46 46 47 47 47 48 48 46 44 42 41 41 41 42 42 42 42 41 39 35 31 28 27 26 23 21 20 20 19 18 18 18 16 15 13 12 12 12 11 11 12 13 13 15
13 15 16 16 16 17 17 17 18 19 19 20 21 21 21 22 23 24 25 27 29 31 32 31 32 33 34 34 35 36 37 39 40 40 40 41 41 41 42 43 43 44 44 45 45 46 47 47 46 44 42 41 40 40 41 41 41 41 40 39 37 33 31 29 28 26 25 24 24 24 23 23 23 22 20 19 17 16 16 15 13 13 12 12 12
11 12 14 14 15 15 16 16 17 18 18 19 20 20 20 21 22 22 23 24 26 28 29 30 30 30 31 32 32 33 34 36 36 36 37 38 38 39 40 40 40 41 42 42 42 43 45 45 44 43 41 40 40 40 39 39 38 39 39 40 40 38 35 32 31 30 28 28 28 28 28 28 28 27 25 23 22 22 21 20 18 18 17 15 14
Wind_Direction
318 317 317 316 314 312 313 314 313 311 308 304 302 300 299 298 297 298 298 297 297 296 295 296 297 299 299 300 301 299 299 297 286 276 272 273 279 282 289 290 286 287 286 292 289 247 200 185 186 186 184 183 182 181 180 179 180 179 178 177 177 174 168 165 161 155 170 179 177 179 181 179 180 183 184 185 185 189 193 191 188 187 183 181 183
317 318 318 316 313 313 312 313 313 311 308 305 302 301 300 299 298 299 298 297 297 296 295 296 296 297 298 298 300 299 297 296 290 279 273 274 279 283 290 291 289 291 289 293 291 252 201 186 187 185 183 184 183 181 181 180 179 178 178 177 175 175 173 167 159 151 155 170 173 175 179 179 178 182 185 185 184 185 188 188 188 190 190 188 188
317 318 317 315 313 313 313 314 313 311 308 305 304 303 301 301 299 298 297 296 297 296 295 296 296 296 297 297 298 298 298 297 294 285 276 277 282 284 290 291 290 294 290 290 292 263 207 186 187 184 182 184 183 182 181 180 180 178 178 178 175 174 175 169 163 161 156 161 170 172 174 178 179 181 185 185 184 185 186 188 189 191 193 195 195
319 319 318 316 315 315 315 315 313 310 308 306 306 305 302 300 299 298 296 296 296 296 296 297 297 296 295 294 295 296 297 298 297 290 279 276 283 286 290 292 290 294 291 286 290 272 218 190 188 185 181 182 182 181 181 181 181 179 178 178 176 173 173 171 168 166 159 157 169 174 173 175 179 181 182 182 183 184 185 186 189 192 194 197 199
321 320 319 317 317 316 316 316 313 310 309 308 307 307 303 300 299 298 297 296 295 295 296 295 295 294 293 292 292 293 294 296 297 293 285 280 283 285 288 292 291 293 291 285 286 277 230 193 187 185 181 181 181 180 182 182 181 180 178 177 176 172 171 171 169 167 164 160 164 172 173 172 174 179 181 178 175 177 182 186 189 191 193 196 199
322 321 320 318 316 316 316 317 314 310 309 309 308 308 304 300 299 299 298 297 295 295 294 294 293 293 293 292 291 290 291 293 293 292 287 282 281 284 285 290 292 293 292 284 283 280 246 199 186 185 182 180 180 180 182 183 181 180 179 176 174 171 169 168 167 166 166 163 160 164 170 171 168 173 180 178 173 172 175 181 186 190 193 195 197
322 320 319 317 315 314 315 314 311 310 309 309 308 306 305 302 299 298 298 297 296 295 294 295 294 294 293 291 289 288 287 289 290 289 286 282 279 281 284 287 291 293 294 288 281 281 263 215 189 185 183 181 181 181 181 182 181 180 179 175 171 169 166 165 165 164 163 163 163 164 168 171 170 170 176 178 176 174 172 171 177 186 192 194 194
321 320 318 316 313 312 313 312 311 310 308 308 307 305 305 304 300 297 296 295 294 293 293 294 294 293 291 289 287 285 283 284 285 284 283 282 279 279 280 282 288 292 294 294 285 281 271 233 197 186 186 185 183 182 181 181 179 179 178 173 169 167 165 162 162 162 161 162 167 168 166 167 167 166 168 170 172 176 178 174 173 179 185 190 193
321 319 316 313 311 311 311 311 311 310 307 306 307 305 304 303 300 297 294 292 291 292 292 291 291 290 289 287 285 283 280 279 279 278 278 279 278 279 278 277 282 286 291 296 292 287 278 245 206 190 188 187 185 183 182 182 179 177 176 172 169 167 164 162 161 161 161 163 166 167 165 164 164 162 166 174 175 175 176 174 170 174 178 181 185
320 318 314 311 311 311 311 310 310 310 308 306 306 306 304 303 300 297 294 292 290 291 291 289 288 286 285 286 284 280 275 273 274 273 272 273 274 275 277 275 276 280 285 293 295 294 285 250 209 193 191 188 186 185 183 182 181 178 177 174 171 167 164 162 163 163 164 165 167 168 167 167 168 167 170 177 175 169 170 171 168 167 169 168 174
318 315 313 313 312 312 312 312 310 310 310 309 308 307 305 303 301 298 294 292 290 290 290 287 286 284 284 285 283 279 274 270 270 271 270 270 269 269 270 270 272 274 277 286 291 293 292 260 208 194 193 189 187 186 184 183 183 181 179 179 176 173 169 165 165 167 168 168 169 170 170 169 171 171 170 171 172 171 173 173 168 165 165 165 169
318 314 314 314 314 312 312 313 312 311 311 311 310 308 306 304 301 298 294 293 291 290 288 285 285 283 282 282 280 277 273 268 268 269 268 268 266 264 265 263 265 269 270 279 284 284 292 275 217 193 193 190 186 186 184 184 184 183 182 182 181 180 178 174 172 171 171 171 171 173 173 169 168 171 171 171 173 174 175 175 173 172 172 173 176
317 314 314 314 313 313 313 314 313 311 311 312 311 309 307 303 299 296 294 292 290 287 285 283 282 281 279 279 277 275 272 267 266 265 265 266 265 263 263 258 257 263 265 272 280 278 286 283 236 195 191 191 185 184 185 184 184 184 182 182 182 182 182 181 179 178 176 173 172 176 176 169 168 173 176 175 173 172 174 178 179 177 177 180 183
316 315 314 314 313 314 315 314 313 312 311 312 311 308 306 302 297 295 293 290 287 285 283 281 280 278 276 276 275 273 270 266 263 263 263 265 265 263 261 257 255 260 263 265 273 275 279 284 256 201 189 190 186 183 185 183 181 181 179 179 181 182 182 182 181 180 179 177 175 177 177 175 174 177 178 179 179 177 177 180 182 182 184 186 189
315 314 314 315 316 317 317 315 313 312 311 311 309 306 305 302 297 294 292 289 286 283 281 279 277 277 275 274 274 273 270 265 262 264 264 263 264 262 259 257 253 255 261 262 267 270 273 282 268 215 189 188 188 185 184 182 180 178 177 178 179 180 181 181 180 180 181 182 180 178 178 180 180 180 182 185 187 188 187 187 187 186 185 184 185
316 317 317 318 318 318 318 315 312 311 310 309 305 302 301 299 297 293 289 286 283 280 278 276 274 274 273 272 271 270 268 265 261 261 262 262 263 260 257 256 252 251 257 258 261 267 268 275 272 230 192 186 189 187 184 182 179 177 177 178 178 179 181 183 183 183 184 185 185 185 185 186 187 189 192 191 190 189 186 184 183 180 176 174 174
319 318 316 315 316 317 317 315 312 310 308 307 305 303 299 296 295 291 285 282 280 276 274 274 273 272 270 268 268 268 266 264 260 259 261 262 261 257 252 251 249 248 253 255 257 264 265 267 269 239 196 185 188 186 183 180 178 177 178 177 177 180 182 184 185 186 187 188 189 191 193 193 192 194 195 192 190 186 178 173 176 175 171 168 167
319 317 315 315 316 316 315 313 310 307 305 303 301 301 302 301 298 291 282 276 276 274 271 270 269 269 268 265 264 264 264 263 261 260 262 260 256 251 246 245 245 245 249 253 255 259 262 263 264 244 202 186 186 185 181 179 177 177 177 176 177 180 182 182 183 185 187 188 188 190 192 193 193 194 194 191 189 187 183 180 179 176 175 178 174
319 317 315 315 315 313 312 310 308 303 300 300 299 302 307 308 304 297 285 273 272 274 271 265 264 267 266 264 264 262 260 260 259 259 259 257 251 245 241 239 241 240 244 249 251 256 259 260 261 247 210 188 184 183 181 179 178 178 178 176 177 183 183 180 181 181 182 183 184 186 188 189 190 191 192 191 190 191 191 188 183 179 180 180 172
317 316 314 313 313 313 313 312 311 307 303 304 305 307 309 306 301 299 294 284 278 277 270 259 259 264 263 262 262 261 259 258 257 257 257 254 248 242 236 233 234 235 238 243 246 253 256 254 256 247 215 190 183 183 182 181 181 179 178 179 182 185 182 179 180 180 180 181 182 182 183 185 186 187 187 188 189 191 193 191 187 185 182 178 175
316 316 315 314 315 317 317 316 315 312 310 310 310 310 310 307 303 301 299 293 287 283 275 262 255 261 262 258 256 257 258 257 255 256 255 252 248 241 233 229 230 231 234 239 241 247 252 250 249 241 213 190 182 182 183 185 184 181 183 187 187 184 179 177 179 180 179 179 179 178 180 181 183 185 184 186 189 191 192 192 191 189 186 182 181
318 317 318 319 319 321 322 321 319 317 316 318 316 313 313 312 309 304 301 297 292 286 281 268 252 256 261 256 254 257 257 254 252 253 253 252 247 239 232 229 228 229 232 237 238 242 247 246 243 233 210 190 183 183 185 186 186 186 189 190 186 181 178 177 176 176 175 176 175 176 178 179 181 183 184 186 189 192 193 194 193 193 193 193 192
321 321 322 323 324 325 326 326 324 323 324 324 321 317 315 314 311 310 308 305 300 295 290 276 251 250 259 256 252 254 255 254 252 251 252 250 245 239 234 231 229 228 230 234 237 240 244 244 238 227 210 193 185 185 185 186 187 191 193 189 183 181 180 174 171 172 174 175 176 177 179 180 181 183 184 186 190 192 193 194 195 195 197 199 201
325 325 326 327 328 330 330 330 329 329 330 329 325 322 320 318 316 315 313 311 309 306 304 291 258 244 253 255 253 253 255 257 256 253 251 247 242 238 234 232 229 228 229 233 237 239 242 241 234 222 209 196 189 187 187 187 190 193 192 188 183 180 175 171 171 172 173 177 181 182 183 183 183 183 185 187 190 192 193 194 197 198 198 200 202
329 330 331 332 334 335 334 334 335 335 335 334 331 326 324 323 322 319 317 318 320 320 322 317 302 285 273 265 264 263 262 261 259 257 254 248 243 239 237 235 232 230 230 233 236 237 238 237 230 219 209 200 192 187 187 190 193 193 190 186 181 176 173 172 173 172 174 181 186 186 186 186 186 186 186 187 187 189 192 194 197 199 199 201 203
333 334 335 336 338 339 338 338 339 341 342 341 336 329 327 326 324 323 325 331 333 330 327 324 319 314 304 290 277 270 267 263 259 258 257 251 246 243 240 239 237 234 233 234 235 236 235 233 225 214 206 199 192 187 188 191 193 191 187 183 179 176 176 175 173 176 182 186 188 188 187 186 185 185 183 183 185 188 190 192 194 197 198 199 200
336 337 338 339 340 342 342 340 341 343 346 344 339 333 331 330 328 329 333 338 338 333 330 329 327 324 317 305 289 273 268 268 262 261 260 253 248 246 243 240 238 235 232 232 231 231 230 226 218 209 202 197 192 189 189 191 190 186 182 179 178 179 180 179 180 184 187 188 188 187 183 180 179 179 179 182 186 189 190 190 191 194 196 197 197
340 340 342 343 343 344 344 342 343 345 346 344 339 335 336 335 333 334 336 338 338 336 334 332 331 329 324 316 305 283 269 269 263 260 259 253 249 246 239 234 231 227 224 223 221 221 220 216 208 201 195 192 190 188 187 186 184 180 178 179 180 182 184 184 185 187 188 186 184 178 174 176 178 179 181 184 187 189 190 190 191 192 191 191 195
344 346 347 347 347 347 347 347 347 346 346 345 340 337 340 340 336 337 340 342 343 343 341 338 337 334 327 323 325 318 293 288 283 273 267 264 264 256 241 230 224 219 217 215 211 209 210 203 195 191 188 185 185 185 182 179 177 176 178 180 181 183 185 186 186 187 187 184 179 175 175 178 179 180 182 185 188 190 190 190 190 189 187 190 197
347 350 351 351 350 348 348 351 350 347 348 346 340 339 344 348 349 347 344 345 351 354 351 348 350 349 342 336 337 337 334 334 326 305 283 274 273 271 256 238 226 218 212 207 200 197 197 192 187 185 183 183 184 182 177 174 174 175 178 180 180 182 184 187 188 189 188 183 180 180 180 177 177 179 182 184 187 189 190 190 189 186 186 191 198
348 350 352 353 351 349 349 349 346 345 347 346 342 340 343 347 352 356 355 353 356 359 359 359 2 2 357 350 348 347 349 353 352 339 315 289 275 272 265 245 230 219 206 195 189 188 188 186 186 186 184 184 184 181 177 175 175 175 176 179 181 182 184 187 189 188 187 184 182 183 183 181 180 182 184 184 184 185 188 190 189 189 191 193 197
350 350 352 353 352 351 350 347 344 346 347 346 345 345 343 343 348 355 359 1 2 3 4 4 5 6 4 360 359 359 359 1 3 360 348 319 281 268 262 247 232 217 199 187 182 185 185 183 184 185 185 187 185 180 177 176 176 176 174 176 181 184 186 188 188 186 186 185 183 183 185 186 185 185 185 184 183 183 185 188 191 193 195 196 198
354 353 354 354 353 353 353 350 348 348 348 347 345 345 347 346 343 345 352 359 6 10 12 10 8 8 6 3 4 6 6 9 12 13 11 358 316 271 259 247 229 208 191 183 180 181 182 183 186 186 187 187 183 180 178 177 176 176 176 178 181 184 187 188 186 185 187 188 186 184 186 188 188 187 186 185 184 184 186 189 193 195 195 197 200
0 360 359 357 357 358 359 357 351 347 348 348 346 344 346 349 345 340 343 352 1 6 8 8 9 9 7 6 6 8 12 14 16 22 27 25 15 318 254 237 212 195 186 182 183 183 181 182 185 186 186 185 180 177 177 176 176 176 179 182 183 182 183 183 183 185 188 190 189 189 188 188 188 187 185 186 187 188 188 190 193 194 195 198 200
5 4 4 4 3 3 3 2 357 353 352 349 346 344 346 349 350 349 346 346 347 348 353 359 4 9 10 9 7 9 14 17 20 28 33 33 38 52 56 44 113 166 150 119 135 168 179 184 186 185 183 182 179 178 176 177 177 178 180 182 181 178 177 179 183 187 188 188 190 191 190 189 190 189 187 186 187 188 190 193 194 196 198 198 197
8 6 6 6 5 4 5 5 3 1 358 352 347 347 349 352 354 352 349 350 348 339 343 355 2 7 12 13 12 12 14 17 24 32 34 33 39 49 48 33 18 26 30 29 34 46 60 79 173 183 183 181 180 179 178 179 180 181 181 180 178 177 178 181 183 186 187 188 190 191 190 191 193 191 189 188 189 191 192 193 195 198 200 198 197
10 7 5 4 5 6 6 6 6 5 3 2 359 355 352 354 358 356 352 354 354 346 346 355 2 6 11 14 13 9 8 17 29 36 35 34 37 39 35 29 26 28 28 26 27 34 38 39 48 95 160 180 183 182 181 181 181 181 180 180 179 180 182 184 184 185 186 189 190 190 190 192 195 194 192 192 194 196 196 195 196 200 201 199 198
15 12 8 5 6 8 8 7 7 6 7 9 9 3 356 356 360 358 354 356 358 355 351 354 0 6 10 11 10 9 13 23 30 31 29 30 32 30 27 28 32 32 32 31 31 35 38 38 44 55 65 87 139 171 182 184 182 179 177 179 182 184 183 183 184 185 187 188 189 190 191 192 194 195 196 197 198 199 200 199 200 201 202 201 200
19 17 13 10 10 11 11 11 10 9 9 10 11 8 3 359 359 356 353 353 356 357 357 356 359 6 10 11 11 15 20 23 23 21 21 24 27 27 26 28 29 29 29 28 30 35 37 36 39 47 54 60 66 75 113 166 179 181 179 179 181 182 182 182 184 186 188 189 191 191 191 192 194 195 197 200 201 200 201 203 203 203 202 203 204
21 19 15 14 14 14 15 16 14 12 11 9 10 11 9 3 356 352 353 356 356 357 359 1 1 5 11 14 16 18 21 21 19 18 19 21 23 26 28 28 27 24 22 22 26 31 32 33 36 41 45 48 53 56 62 81 126 165 178 182 182 182 183 184 186 188 189 191 192 192 192 194 194 194 197 202 203 202 203 204 205 205 204 204 207
25 22 20 19 17 17 18 19 16 13 13 11 11 11 11 8 3 357 355 359 360 357 358 3 6 9 13 17 20 23 26 26 23 22 22 23 24 26 27 28 28 27 23 22 24 26 28 30 33 36 39 42 45 49 52 59 68 84 119 160 175 183 187 188 189 190 190 191 192 193 195 195 194 195 199 204 205 205 205 206 206 206 207 207 207
30 27 24 23 21 20 19 16 14 14 15 14 13 12 10 10 11 8 3 1 1 359 0 5 10 13 14 15 19 25 30 30 26 24 25 27 27 26 25 26 28 28 26 25 26 26 28 30 32 33 35 37 39 42 45 48 53 60 69 82 98 120 155 179 189 193 194 193 194 195 196 196 196 198 202 204 204 204 206 207 207 206 206 206 207
35 32 30 27 26 24 20 16 15 16 16 15 14 13 12 13 14 14 14 11 7 5 5 7 10 14 17 18 21 26 30 30 27 26 26 25 25 25 25 25 26 26 27 29 30 30 31 32 33 35 36 37 37 40 41 42 45 50 55 62 68 72 76 89 135 184 195 198 200 199 198 197 198 200 203 204 203 203 205 207 207 206 206 206 206
37 35 34 31 29 27 24 20 18 16 15 15 15 15 15 14 13 14 16 15 12 10 10 10 11 14 18 21 23 25 27 26 25 24 25 24 25 26 26 26 26 28 29 30 31 32 34 34 34 35 36 37 38 40 41 41 42 44 46 50 53 54 55 59 64 84 176 200 204 203 202 201 200 201 203 203 202 203 204 205 205 205 204 204 203
39 36 34 32 30 28 25 22 19 16 15 16 16 16 16 15 13 13 14 14 14 14 15 16 16 17 19 20 21 22 25 25 23 24 25 25 27 28 29 28 29 32 33 33 33 33 34 35 34 34 35 35 36 38 40 40 41 42 43 45 47 46 46 49 55 64 101 180 195 198 200 201 200 202 203 202 202 203 204 204 204 202 201 201 202
40 37 34 32 29 27 25 22 19 18 17 16 15 15 15 14 14 14 13 13 15 17 18 19 19 19 20 20 20 22 25 24 23 24 25 26 28 31 32 32 33 33 33 34 35 36 38 38 36 34 34 35 36 37 38 39 40 41 42 44 45 46 48 52 59 72 90 119 159 181 189 191 193 197 200 200 200 201 202 203 202 199 198 198 200
42 38 35 33 30 26 25 23 21 18 18 17 16 16 15 13 14 16 15 15 17 18 19 21 22 22 21 21 22 24 25 24 24 25 26 27 29 31 32 34 36 35 34 35 37 39 40 40 38 36 35 35 36 37 37 38 39 40 41 43 45 47 52 58 64 71 82 95 116 144 157 159 162 175 186 189 192 194 195 196 196 196 195 195 195
43 41 37 34 31 27 24 23 21 18 16 15 15 16 16 14 14 14 15 16 17 18 18 19 21 22 22 22 24 25 24 23 25 27 27 27 29 31 33 35 37 37 38 39 40 42 42 41 39 38 36 35 35 36 37 37 39 39 41 43 45 49 54 60 65 70 78 87 97 109 119 124 124 127 139 152 162 168 172 177 182 185 186 187 187
43 40 37 35 32 29 26 23 20 18 16 14 14 14 15 15 14 13 13 15 17 18 18 19 21 21 22 23 24 25 25 25 27 28 27 28 29 31 33 36 38 39 40 41 42 45 45 43 42 40 37 36 36 37 37 38 39 39 40 43 47 52 57 60 64 69 76 83 88 93 98 102 104 103 107 115 121 126 132 137 144 155 163 167 172
44 41 37 35 33 30 28 26 23 21 19 16 14 14 14 14 13 13 13 14 16 17 18 19 20 21 22 23 24 24 25 26 26 26 27 28 30 31 33 35 37 38 40 41 43 45 46 44 42 41 39 37 38 38 38 39 40 41 43 46 51 55 58 61 64 68 74 78 82 86 89 91 91 90 92 97 103 106 108 110 113 120 126 128 136
42 42 39 36 32 29 28 27 25 22 20 18 16 14 12 12 12 13 13 13 14 15 17 18 20 21 22 24 24 25 26 27 27 27 28 29 30 31 33 34 35 37 39 41 43 46 47 45 43 42 40 39 39 40 40 40 42 45 49 52 55 57 60 62 64 68 73 78 81 82 83 83 83 80 80 84 89 92 94 97 100 103 105 105 110